DB0TGO-13 Weather Reports


time (UTC)temp
C
wind
direction
speed
KPH
gust
KPH
rain 1hr
cm
rain 24hr
cm
rain mn
cm
humidity
%
barometer
mb
20260509131502 15 70 3.2 0.0 0.00 0.00 0.00 49 1015.3
20260509130002 15 70 3.2 0.0 0.00 0.00 0.00 49 1015.3
20260509124502 15 70 3.2 0.0 0.00 0.00 0.00 52 1015.4
20260509123002 15 40 6.4 0.0 0.00 0.00 0.00 52 1015.4
20260509121502 15 40 6.4 0.0 0.00 0.00 0.00 49 1015.5
20260509120002 15 40 3.2 0.0 0.00 0.00 0.00 49 1015.5
20260509114502 14 60 4.8 0.0 0.00 0.00 0.00 49 1015.7
20260509113003 14 60 4.8 0.0 0.00 0.00 0.00 49 1015.7
20260509111502 15 60 4.8 0.0 0.00 0.00 0.00 48 1015.8
20260509110002 15 280 4.8 0.0 0.00 0.00 0.00 48 1015.8
20260509104502 15 280 4.8 0.0 0.00 0.00 0.00 53 1015.9
20260509103002 15 280 4.8 0.0 0.00 0.00 0.00 53 1015.9
20260509101502 13 280 4.8 0.0 0.00 0.00 0.00 52 1016.1
20260509100002 13 40 4.8 0.0 0.00 0.00 0.00 52 1016.1
20260509094502 13 40 4.8 0.0 0.00 0.00 0.00 59 1016.1
20260509093002 13 30 4.8 0.0 0.00 0.00 0.00 59 1016.1
20260509091503 12 40 4.8 0.0 0.00 0.00 0.00 66 1016.2
20260509090002 12 40 4.8 0.0 0.00 0.00 0.00 66 1016.2
20260509084502 12 30 4.8 0.0 0.00 0.00 0.00 65 1016.1
20260509083002 12 30 4.8 0.0 0.00 0.00 0.00 65 1016.1
20260509081502 11 30 4.8 0.0 0.00 0.00 0.00 69 1016.1
20260509080002 11 80 4.8 0.0 0.00 0.00 0.00 69 1016.1
20260509074502 10 80 4.8 0.0 0.00 0.00 0.00 73 1016.0
20260509073002 10 50 4.8 0.0 0.00 0.00 0.00 73 1016.0
20260509071502 10 50 4.8 0.0 0.00 0.00 0.00 71 1015.9
20260509070002 10 350 1.6 0.0 0.00 0.00 0.00 71 1015.9
20260509064502 10 350 1.6 0.0 0.00 0.00 0.00 74 1015.9
20260509063002 10 50 1.6 0.0 0.00 0.00 0.00 74 1015.9
20260509061502 9 30 0.0 0.0 0.00 0.00 0.00 78 1015.8
20260509060002 9 30 0.0 0.0 0.00 0.00 0.00 78 1015.8
20260509054502 9 30 0.0 0.0 0.00 0.00 0.00 77 1015.7
20260509053002 9 270 1.6 0.0 0.00 0.00 0.00 77 1015.7
20260509051502 8 60 3.2 0.0 0.00 0.00 0.00 81 1015.4
20260509050002 8 60 3.2 0.0 0.00 0.00 0.00 81 1015.4
20260509044502 8 60 3.2 0.0 0.00 0.00 0.00 79 1015.5
20260509043002 8 90 4.8 0.0 0.00 0.00 0.00 79 1015.5
20260509041502 8 80 3.2 0.0 0.00 0.00 0.00 78 1015.5
20260509040002 8 80 3.2 0.0 0.00 0.00 0.00 78 1015.5
20260509034502 8 70 3.2 0.0 0.00 0.00 0.00 77 1015.6
20260509033002 8 70 3.2 0.0 0.00 0.00 0.00 77 1015.6
20260509031502 8 50 3.2 0.0 0.00 0.00 0.00 74 1015.5
20260509030004 8 50 3.2 0.0 0.00 0.00 0.00 74 1015.5
20260508204502 11 80 6.4 0.0 0.00 0.00 0.00 68 1015.5
20260508203003 11 80 1.6 0.0 0.00 0.00 0.00 68 1015.5
20260508201502 11 90 4.8 0.0 0.00 0.00 0.00 72 1015.4
20260508200002 11 90 4.8 0.0 0.00 0.00 0.00 72 1015.4
20260508194502 11 80 6.4 0.0 0.00 0.00 0.00 69 1015.2
20260508193002 11 80 6.4 0.0 0.00 0.00 0.00 69 1015.2
20260508191503 11 80 6.4 0.0 0.00 0.00 0.00 65 1014.8
20260508190002 11 70 8.0 0.0 0.00 0.00 0.00 65 1014.8
20260508184502 12 70 8.0 0.0 0.00 0.00 0.00 62 1014.7
20260508183002 12 80 9.7 0.0 0.00 0.00 0.00 62 1014.7
20260508181502 12 80 9.7 0.0 0.00 0.00 0.00 61 1014.5
20260508180002 12 70 9.7 0.0 0.00 0.00 0.00 61 1014.5
20260508174502 12 70 9.7 0.0 0.00 0.00 0.00 60 1014.4
20260508173002 12 70 9.7 0.0 0.00 0.00 0.00 60 1014.4
20260508171502 12 60 9.7 0.0 0.00 0.00 0.00 62 1014.4
20260508170002 12 60 9.7 0.0 0.00 0.00 0.00 62 1014.4
20260508164502 13 70 6.4 0.0 0.00 0.00 0.00 60 1014.3
20260508163002 13 70 6.4 0.0 0.00 0.00 0.00 60 1014.3
20260508161503 12 70 6.4 0.0 0.00 0.00 0.00 58 1014.3
20260508160003 12 50 4.8 0.0 0.00 0.00 0.00 58 1014.3
20260508154503 12 50 4.8 0.0 0.00 0.00 0.00 60 1014.4
20260508153002 12 50 11.3 0.0 0.00 0.00 0.00 60 1014.4
20260508151503 12 50 11.3 0.0 0.00 0.00 0.00 57 1014.4
20260508150003 12 60 9.7 0.0 0.00 0.00 0.00 57 1014.4
20260508144502 13 30 4.8 0.0 0.00 0.00 0.00 55 1014.5
20260508143002 13 30 4.8 0.0 0.00 0.00 0.00 55 1014.5
20260508140003 12 30 3.2 0.0 0.00 0.00 0.00 60 1014.9
20260508134502 12 30 3.2 0.0 0.00 0.00 0.00 60 1014.9
20260508133002 12 30 3.2 0.0 0.00 0.00 0.00 60 1014.9